sat.trackr.live / text

‹ back to catalog

2024-153A

NORAD 60745 · 2024-153A

PAYLOAD ACTIVE UNKNOWN

§ Identity

Operator
Country
PRC
Launch date
2024-08-29
Launch site
YSLA
Launch vehicle
Mass (kg)
RCS (m²)

External: N2YO · Heavens-Above · Gunter

§ Orbital elements

Epoch: 2026-09-22T22:37:32.099232Z

Period
92.43 min
Inclination
97.6829°
Eccentricity
0.0003755
Mean motion
15.57921428 rev/d
Perigee alt
391.1 km
Apogee alt
396.2 km
Semi-major
6,771.8 km
B*
1.0241e-3
RAAN
54.4349°
Arg perigee
130.8965°
Mean anomaly
229.2615°
Rev number
11,527

§ Raw data

2024-153A1 60745U 24153A   26265.94273263  .00077004  00000+0  10241-2 0  99912 60745  97.6829  54.4349 0003755 130.8965 229.2615 15.57921428115273

JSON: /api/v1/satellites/60745 · /tle

For live sub-satellite position, see the globe view (requires WebGL).

§ Visibility from observer

Set your observer location to see the next 7 days of passes ≥ 10°. The values pass through the URL so the page stays shareable.

No JS? Fill the form by hand. The geolocation button needs JavaScript.

§ Radio — SatNOGS DB

ModeDescriptionDownlinkUplink
FM Mode U - Transmitter 400.055 MHz
FM Mode U - Transmitter 400.455 MHz

2 transmitters · refreshed weekly from db.satnogs.org